This is the latest recevied weather packets stored in our database for station/object DB0TGO-13. If no packets are shown the sender has not sent any weather packets the latest 10 day(s).
| Time | Temp. | Humidity | Pressure | Rain* | Wind** | Luminosity | Snow |
|---|---|---|---|---|---|---|---|
| 1778076902 | 11.67° C | 86% | 1001.4 hPa | - | - | - | - |
| 1778076002 | 11.67° C | 86% | 1001.4 hPa | - | - | - | - |
| 1778075102 | 12.22° C | 87% | 1001.3 hPa | - | - | - | - |
| 1778074202 | 12.22° C | 87% | 1001.3 hPa | - | - | - | - |
| 1778073302 | 11.67° C | 88% | 1001.3 hPa | - | - | - | - |
| 1778072403 | 11.67° C | 88% | 1001.3 hPa | - | - | - | - |
| 1778071502 | 11.67° C | 88% | 1001.1 hPa | - | - | - | - |
| 1778070602 | 11.67° C | 88% | 1001.1 hPa | - | - | - | - |
| 1778069702 | 12.22° C | 88% | 1000.7 hPa | - | - | - | - |
| 1778068803 | 12.22° C | 88% | 1000.7 hPa | - | - | - | - |
| 1778067902 | 11.67° C | 90% | 1000.6 hPa | - | - | - | - |
| 1778067003 | 11.67° C | 90% | 1000.6 hPa | - | - | - | - |
| 1778066103 | 11.11° C | 91% | 1000.4 hPa | - | - | - | - |
| 1778065202 | 11.11° C | 91% | 1000.4 hPa | - | - | - | - |
| 1778064303 | 11.11° C | 92% | 1000.1 hPa | - | - | - | - |
| 1778063402 | 11.11° C | 92% | 1000.1 hPa | - | - | - | - |
| 1778062503 | 11.11° C | 93% | 999.9 hPa | - | - | - | - |
| 1778061602 | 11.11° C | 93% | 999.9 hPa | - | - | - | - |
| 1778060702 | 10.56° C | 94% | 999.6 hPa | - | - | - | - |
| 1778059802 | 10.56° C | 94% | 999.6 hPa | - | - | - | - |
| 1778058902 | 11.11° C | 96% | 999.4 hPa | - | - | - | - |
| 1778058003 | 11.11° C | 96% | 999.4 hPa | - | - | - | - |
| 1778057102 | 10.56° C | 96% | 999.2 hPa | - | - | - | - |
| 1778056203 | 10.56° C | 96% | 999.2 hPa | - | - | - | - |
| 1778055302 | 10.56° C | 97% | 999.1 hPa | - | - | - | - |
* Rain since midnight (hover to see other rain measurements)
** Current wind speed in m/s (hover to see current wind gust speed)